Stations météo

réclame
Mon MeteoGroup
S. Maria Di Leuca, Italie (16360): Température de l'air & dewpoint: 14.10.2018 19:00:00 - 20.10.2018 19:00:00 (CEST)S. Maria Di Leuca, Italie (16360): Vitesse du vent: 14.10.2018 19:00:00 - 20.10.2018 19:00:00 (CEST)S. Maria Di Leuca, Italie (16360): Direction du vent: 14.10.2018 19:00:00 - 20.10.2018 19:00:00 (CEST)S. Maria Di Leuca, Italie (16360): reduced air pressure: 14.10.2018 19:00:00 - 20.10.2018 19:00:00 (CEST)S. Maria Di Leuca, Italie (16360): visibility: 14.10.2018 19:00:00 - 20.10.2018 19:00:00 (CEST)S. Maria Di Leuca, Italie (16360): Ensoleillement: 14.10.2018 19:00:00 - 20.10.2018 19:00:00 (CEST)
Date & Time tt [°C] td [°C] ff [km/h] ff [knt] dd ppp [hPa] vv [km] sd [min]
20.10.2018 19:00:00 19,2 16,4 22 12 N 1017,2 10 -
20.10.2018 18:00:00 20,2 16,7 24 13 N 1017,4 10 24
20.10.2018 17:00:00 20,6 15,6 21 11 N 1017,5 10 60
20.10.2018 16:00:00 21,0 15,3 16 9 N 1017,7 10 60
20.10.2018 15:00:00 21,0 15,3 18 10 N 1017,8 10 60
20.10.2018 14:00:00 21,0 15,6 18 10 N 1017,8 10 60
20.10.2018 13:00:00 20,2 15,6 18 10 N 1017,9 10 60
20.10.2018 12:00:00 20,2 15,6 18 10 NNE 1018,1 10 60
20.10.2018 11:00:00 19,4 15,9 22 12 NNE 1017,9 10 60
20.10.2018 10:00:00 18,8 14,5 22 12 N 1017,7 10 60
20.10.2018 09:00:00 18,2 13,7 21 11 NNE 1017,4 8 42
20.10.2018 08:00:00 18,0 13,7 21 11 NNE 1017,0 8 12
20.10.2018 07:00:00 18,0 13,9 16 9 NE 1017,2 8 0
20.10.2018 06:00:00 18,0 13,9 18 10 NNE 1017,1 10 -
20.10.2018 05:00:00 18,0 13,9 21 11 NNE 1016,9 10 -
20.10.2018 04:00:00 - - - - - - - -
20.10.2018 03:00:00 - - - - - - - -
20.10.2018 02:00:00 18,2 14,1 18 10 NNE 1016,9 10 -
20.10.2018 01:00:00 18,2 14,1 22 12 NNE 1016,9 10 -
20.10.2018 00:00:00 18,2 14,1 21 11 NNE 1016,8 10 -
19.10.2018 23:00:00 18,4 14,3 22 12 NNE 1016,4 10 -
19.10.2018 22:00:00 19,0 15,5 22 12 NNE 1016,0 10 -
19.10.2018 21:00:00 19,2 16,2 22 12 NNE 1015,5 10 -
19.10.2018 20:00:00 19,4 16,8 18 10 NNE 1015,5 10 -
19.10.2018 19:00:00 20,0 16,8 16 9 N 1015,5 10 0
19.10.2018 18:00:00 20,4 17,8 4 2 N 1015,5 10 0
19.10.2018 17:00:00 20,8 18,7 11 6 S 1015,4 10 60
19.10.2018 16:00:00 21,8 19,2 4 2 SE 1015,3 10 60
19.10.2018 15:00:00 21,4 18,2 8 4 SW 1015,3 10 60
19.10.2018 14:00:00 21,6 18,4 13 7 SW 1015,6 10 60
19.10.2018 13:00:00 22,2 16,2 13 7 NE 1015,6 10 60
19.10.2018 12:00:00 21,6 14,7 18 10 NE 1015,6 10 60
19.10.2018 11:00:00 21,0 15,5 18 10 NE 1015,2 6 60
19.10.2018 10:00:00 19,8 15,9 18 10 NNE 1015,0 6 60
19.10.2018 09:00:00 18,0 13,9 18 10 NNE 1015,0 6 6
19.10.2018 08:00:00 17,0 13,1 21 11 NNE 1014,2 6 0
19.10.2018 07:00:00 17,2 12,9 15 8 NNE 1014,0 0,1 -
19.10.2018 06:00:00 17,4 13,5 13 7 NNE 1014,2 10 -
19.10.2018 05:00:00 19,2 15,1 4 2 NNW 1015,1 10 -
19.10.2018 04:00:00 19,2 15,1 5 3 WNW 1015,1 10 -
19.10.2018 03:00:00 19,0 14,7 8 4 W 1014,9 10 -
19.10.2018 02:00:00 18,4 14,3 13 7 NNE 1015,0 10 -
19.10.2018 01:00:00 20,0 17,8 13 7 NNE 1014,5 10 -
19.10.2018 00:00:00 20,0 17,8 13 7 NE 1014,5 10 -
18.10.2018 23:00:00 20,0 17,8 16 9 NE 1014,5 10 -
18.10.2018 22:00:00 20,0 17,8 8 4 NE 1014,5 10 -
18.10.2018 21:00:00 20,0 17,8 0 0 N 1014,3 10 -
18.10.2018 20:00:00 20,2 18,0 5 3 SW 1014,0 10 -
18.10.2018 19:00:00 20,4 18,2 2 1 S 1013,8 10 -
18.10.2018 18:00:00 21,2 19,0 4 2 S 1013,6 10 18
18.10.2018 17:00:00 21,4 18,4 5 3 SE 1013,3 10 60
18.10.2018 16:00:00 21,6 18,4 8 4 SE 1013,8 12 60
18.10.2018 15:00:00 22,0 19,2 8 4 N 1014,0 12 60
18.10.2018 14:00:00 22,0 18,4 8 4 SSE 1014,5 12 60
18.10.2018 13:00:00 23,0 18,5 9 5 SSE 1015,0 12 60
18.10.2018 12:00:00 22,2 12,2 5 3 SE 1015,0 12 60
18.10.2018 11:00:00 20,8 13,7 5 3 ESE 1015,0 10 60
18.10.2018 10:00:00 19,6 15,2 9 5 ENE 1015,1 10 60
18.10.2018 09:00:00 18,4 14,3 8 4 NNE 1015,0 10 60
18.10.2018 08:00:00 17,0 13,0 13 7 NNE 1014,8 10 6
18.10.2018 07:00:00 17,2 12,9 13 7 NNE 1014,7 8 -
18.10.2018 06:00:00 17,4 13,1 15 8 NNE 1014,6 10 -
18.10.2018 05:00:00 17,8 13,7 11 6 NNE 1014,7 10 -
18.10.2018 04:00:00 18,0 13,9 9 5 N 1015,2 10 -
18.10.2018 03:00:00 18,0 14,1 11 6 N 1015,9 10 -
18.10.2018 02:00:00 18,6 14,7 8 4 NNE 1016,1 10 -
18.10.2018 01:00:00 18,8 14,9 8 4 NNE 1016,1 10 -
18.10.2018 00:00:00 19,0 15,5 8 4 NNE 1016,1 10 -
17.10.2018 23:00:00 19,2 17,0 9 5 NNE 1016,1 10 -
17.10.2018 22:00:00 19,4 15,9 8 4 N 1016,1 10 -
17.10.2018 21:00:00 19,6 16,4 8 4 NNW 1016,1 10 -
17.10.2018 20:00:00 20,2 17,2 5 3 NW 1015,9 10 -
17.10.2018 19:00:00 20,2 17,6 5 3 W 1015,3 10 0
17.10.2018 18:00:00 21,0 18,6 0 0 N 1015,3 10 30
17.10.2018 17:00:00 21,2 17,8 4 2 WSW 1016,2 10 60
17.10.2018 16:00:00 21,2 17,8 9 5 SW 1016,4 10 60
17.10.2018 15:00:00 21,2 17,8 8 4 S 1016,5 10 60
17.10.2018 14:00:00 21,2 17,8 9 5 SE 1016,6 10 60
17.10.2018 13:00:00 21,0 17,2 9 5 SSE 1017,5 10 60
17.10.2018 12:00:00 21,0 17,2 8 4 SE 1017,7 10 60
17.10.2018 11:00:00 21,0 17,4 9 5 SSE 1017,7 10 60
17.10.2018 10:00:00 20,4 17,6 8 4 SE 1017,7 10 60
17.10.2018 09:00:00 20,4 17,6 11 6 E 1017,7 10 30
17.10.2018 08:00:00 20,2 17,6 9 5 E 1018,2 10 0
17.10.2018 07:00:00 20,2 17,6 11 6 E 1018,1 10 -
17.10.2018 06:00:00 20,0 17,4 11 6 E 1018,2 10 -
17.10.2018 05:00:00 20,0 17,4 9 5 E 1019,2 10 -
17.10.2018 04:00:00 20,0 17,2 9 5 E 1018,2 10 -
17.10.2018 03:00:00 20,0 17,4 9 5 E 1019,2 10 -
17.10.2018 02:00:00 20,0 17,2 8 4 E 1019,2 10 -
17.10.2018 01:00:00 20,0 17,0 9 5 ESE 1019,2 10 -
17.10.2018 00:00:00 20,0 16,4 15 8 E 1019,6 10 -
16.10.2018 23:00:00 20,0 16,8 11 6 E 1019,7 10 -
16.10.2018 22:00:00 20,0 18,0 5 3 ESE 1019,7 10 -
16.10.2018 21:00:00 20,2 17,6 8 4 SE 1019,5 10 -
16.10.2018 20:00:00 20,8 18,9 9 5 SE 1019,4 10 -
16.10.2018 19:00:00 20,8 18,9 11 6 SSE 1019,1 12 0
16.10.2018 18:00:00 21,0 19,1 13 7 SSE 1019,1 15 0
16.10.2018 17:00:00 21,0 18,9 15 8 SE 1019,2 10 30
16.10.2018 16:00:00 21,4 19,3 15 8 SE 1019,2 15 60
16.10.2018 15:00:00 21,4 19,1 16 9 SE 1019,3 15 60
16.10.2018 14:00:00 21,6 18,8 18 10 SE 1019,4 15 60
16.10.2018 13:00:00 21,6 18,0 18 10 SE 1019,4 15 60
16.10.2018 12:00:00 21,6 19,0 18 10 SSE 1019,4 15 60
16.10.2018 11:00:00 21,6 18,0 22 12 SE 1019,4 15 60
16.10.2018 10:00:00 21,4 15,7 15 8 SE 1019,3 15 60
16.10.2018 09:00:00 21,2 17,0 18 10 SE 1019,1 15 30
16.10.2018 08:00:00 20,4 17,4 16 9 ESE 1018,6 15 0
16.10.2018 07:00:00 20,2 18,5 16 9 E 1018,3 15 -
16.10.2018 06:00:00 20,2 18,2 15 8 ESE 1018,3 10 -
16.10.2018 05:00:00 20,2 18,0 13 7 ESE 1018,3 10 -
16.10.2018 04:00:00 20,2 18,3 13 7 SE 1018,5 10 -
16.10.2018 03:00:00 20,6 18,5 15 8 SE 1018,5 10 -
16.10.2018 02:00:00 20,6 18,7 15 8 ESE 1018,5 10 -
16.10.2018 01:00:00 20,6 18,7 15 8 ESE 1018,5 10 -
16.10.2018 00:00:00 20,6 18,7 13 7 ESE 1018,5 10 -
15.10.2018 23:00:00 20,6 18,7 15 8 ESE 1018,4 10 -
15.10.2018 22:00:00 20,6 18,9 13 7 SE 1018,1 10 -
15.10.2018 21:00:00 20,6 18,7 11 6 SE 1017,9 10 -
15.10.2018 20:00:00 20,6 19,3 15 8 SE 1017,8 10 -
15.10.2018 19:00:00 20,8 18,7 16 9 SE 1017,6 12 0
15.10.2018 18:00:00 21,0 18,6 18 10 SE 1017,5 15 12
15.10.2018 17:00:00 22,0 18,0 21 11 SE 1017,6 10 60
15.10.2018 16:00:00 22,0 18,0 21 11 SE 1017,8 15 60
15.10.2018 15:00:00 22,0 17,8 18 10 SE 1017,6 15 60
15.10.2018 14:00:00 21,6 17,2 21 11 SE 1017,8 15 60
15.10.2018 13:00:00 21,4 17,4 21 11 SE 1018,1 15 60
15.10.2018 12:00:00 22,0 17,4 21 11 SE 1017,9 15 60
15.10.2018 11:00:00 21,0 17,8 21 11 SE 1017,5 15 60
15.10.2018 10:00:00 20,2 16,7 16 9 SE 1017,5 12 60
15.10.2018 09:00:00 20,0 15,7 22 12 ESE 1017,4 12 60
15.10.2018 08:00:00 19,6 16,3 22 12 ESE 1017,2 10 -
15.10.2018 07:00:00 19,4 14,7 22 12 ESE 1017,2 10 0
15.10.2018 06:00:00 19,2 14,2 18 10 ESE 1017,2 10 -
15.10.2018 05:00:00 19,2 15,1 21 11 ESE 1017,4 10 -
15.10.2018 04:00:00 18,8 15,5 16 9 ESE 1017,9 10 -
15.10.2018 03:00:00 18,8 15,5 15 8 ESE 1017,9 10 -
15.10.2018 02:00:00 18,8 15,9 16 9 ESE 1018,2 10 -
15.10.2018 01:00:00 18,8 16,0 15 8 ESE 1018,2 10 -
15.10.2018 00:00:00 18,8 15,9 15 8 ESE 1018,2 10 -
14.10.2018 23:00:00 18,8 15,9 15 8 ESE 1018,2 10 -
14.10.2018 22:00:00 19,2 16,6 11 6 ESE 1018,2 10 -
14.10.2018 21:00:00 19,4 16,2 13 7 ESE 1018,2 10 -
14.10.2018 20:00:00 19,4 15,9 11 6 ESE 1018,2 10 -
14.10.2018 19:00:00 19,8 16,1 8 4 ESE 1017,6 12 0

tt = Température de l'air
td = dewpoint
ff = Vitesse du vent
dd = Direction du vent
ppp = reduced air pressure
vv = visibility
sd = Ensoleillement

stations d'obs. à proximité